K5WNG Weather Reports


Display with metric or nautical units.
time (UTC)temp
F
wind
direction
speed
MPH
gust
MPH
rain 1hr
in
rain 24hr
in
rain mn
in
humidity
%
barometer
mb
20260504210016 83 108 1.0 6.0 0.00 0.00 0.00 60 1010.4
20260504205516 82 174 1.0 7.0 0.00 0.00 0.00 60 1010.4
20260504205019 81 142 1.0 4.0 0.00 0.00 0.00 61 1010.6
20260504204516 82 124 1.0 3.0 0.00 0.00 0.00 61 1010.6
20260504204016 82 163 1.0 3.0 0.00 0.00 0.00 60 1010.6
20260504203520 83 198 1.0 3.0 0.00 0.00 0.00 60 1010.8
20260504203016 83 132 1.0 2.0 0.00 0.00 0.00 60 1010.9
20260504202516 83 203 1.0 5.0 0.00 0.00 0.00 59 1011.1
20260504202016 83 242 1.0 5.0 0.00 0.00 0.00 60 1011.1
20260504201519 83 169 1.0 3.0 0.00 0.00 0.00 59 1011.3
20260504201020 83 148 1.0 4.0 0.00 0.00 0.00 59 1011.3
20260504200517 83 158 1.0 5.0 0.00 0.00 0.00 59 1011.4
20260504200017 83 153 2.0 5.0 0.00 0.00 0.00 59 1011.4
20260504195520 83 126 1.0 4.0 0.00 0.00 0.00 58 1011.5
20260504195017 82 191 1.0 4.0 0.00 0.00 0.00 60 1011.6
20260504194517 82 160 1.0 4.0 0.00 0.00 0.00 60 1011.7
20260504194020 82 183 1.0 4.0 0.00 0.00 0.00 60 1011.8
20260504193517 81 233 1.0 5.0 0.00 0.00 0.00 60 1011.8
20260504193021 81 240 2.0 9.0 0.00 0.00 0.00 60 1011.8
20260504192517 81 239 1.0 7.0 0.00 0.00 0.00 62 1011.9
20260504192021 81 174 2.0 7.0 0.00 0.00 0.00 61 1011.9
20260504191522 81 196 2.0 7.0 0.00 0.00 0.00 61 1012.2
20260504191018 81 238 1.0 7.0 0.00 0.00 0.00 62 1012.2
20260504190517 81 199 1.0 5.0 0.00 0.00 0.00 62 1012.3
20260504190022 81 149 1.0 4.0 0.00 0.00 0.00 62 1012.3
20260504185520 81 166 1.0 5.0 0.00 0.00 0.00 61 1012.3
20260504185017 80 140 1.0 5.0 0.00 0.00 0.00 62 1012.3
20260504184517 80 246 1.0 4.0 0.00 0.00 0.00 62 1012.4
20260504184018 79 152 1.0 3.0 0.00 0.00 0.00 62 1012.4
20260504183518 79 164 1.0 4.0 0.00 0.00 0.00 64 1012.5
20260504183018 79 228 2.0 6.0 0.00 0.00 0.00 63 1012.7
20260504182518 80 223 2.0 6.0 0.00 0.00 0.00 62 1012.8
20260504182018 79 236 2.0 8.0 0.00 0.00 0.00 63 1013.0
20260504181521 79 213 2.0 7.0 0.00 0.00 0.00 63 1013.1
20260504181015 79 195 1.0 5.0 0.00 0.00 0.00 64 1013.0
20260504180516 79 235 2.0 6.0 0.00 0.00 0.00 63 1013.0
20260504180019 78 235 2.0 7.0 0.00 0.00 0.00 64 1013.0
20260504175518 77 192 1.0 4.0 0.00 0.00 0.00 66 1013.1
20260504175016 77 171 1.0 3.0 0.00 0.00 0.00 66 1013.2
20260504174515 77 175 1.0 4.0 0.00 0.00 0.00 65 1013.3
20260504174019 77 197 1.0 5.0 0.00 0.00 0.00 66 1013.5
20260504173516 76 240 1.0 3.0 0.00 0.00 0.00 67 1013.7
20260504173016 77 248 2.0 8.0 0.00 0.00 0.00 65 1013.8
20260504172516 76 232 1.0 6.0 0.00 0.00 0.00 66 1013.9
20260504172016 75 241 2.0 6.0 0.00 0.00 0.00 67 1014.0
20260504171516 75 249 2.0 7.0 0.00 0.00 0.00 68 1014.1
20260504171016 75 204 1.0 5.0 0.00 0.00 0.00 68 1014.1
20260504170516 75 226 2.0 8.0 0.00 0.00 0.00 68 1014.0
20260504151017 71 174 2.0 6.0 0.00 0.00 0.00 71 1014.6
20260504150515 71 233 2.0 7.0 0.00 0.00 0.00 71 1014.7
20260504141016 66 209 1.0 5.0 0.00 0.00 0.00 77 1014.7
20260504140516 66 211 2.0 5.0 0.00 0.00 0.00 77 1014.8
20260504130520 61 86 0.0 2.0 0.00 0.00 0.00 84 1014.8
20260504110516 59 87 1.0 2.0 0.00 0.00 0.00 86 1014.4
20260504100517 60 73 1.0 3.0 0.00 0.00 0.00 83 1014.5
20260504081515 62 80 1.0 3.0 0.00 0.00 0.00 79 1015.0
20260504081015 62 76 0.0 3.0 0.00 0.00 0.00 78 1015.1
20260504080516 62 85 1.0 2.0 0.00 0.00 0.00 78 1015.1
20260504050515 65 146 1.0 2.0 0.00 0.00 0.00 69 1017.0
20260504050015 65 117 0.0 2.0 0.00 0.00 0.00 68 1017.0
20260504045519 65 98 0.0 2.0 0.00 0.00 0.00 68 1017.0
20260504045015 65 117 1.0 2.0 0.00 0.00 0.00 67 1017.1
20260504044516 65 111 0.0 2.0 0.00 0.00 0.00 67 1017.1
20260504044019 65 120 1.0 5.0 0.00 0.00 0.00 67 1017.1
20260504043516 65 151 0.0 2.0 0.00 0.00 0.00 66 1017.2
20260504043016 65 118 0.0 1.0 0.00 0.00 0.00 65 1017.2
20260504042520 65 125 0.0 2.0 0.00 0.00 0.00 64 1017.2
20260504042016 65 132 0.0 1.0 0.00 0.00 0.00 63 1017.3
20260504041521 65 123 0.0 2.0 0.00 0.00 0.00 62 1017.3
20260504041020 65 145 0.0 2.0 0.00 0.00 0.00 62 1017.3
20260504040519 65 142 0.0 1.0 0.00 0.00 0.00 62 1017.3
20260504040016 64 115 1.0 2.0 0.00 0.00 0.00 62 1017.3
20260504035517 63 112 0.0 2.0 0.00 0.00 0.00 62 1017.3
20260504035016 63 106 0.0 2.0 0.00 0.00 0.00 63 1017.3
20260504034516 62 99 0.0 2.0 0.00 0.00 0.00 64 1017.2
20260504034016 63 60 0.0 1.0 0.00 0.00 0.00 65 1017.2
20260504033517 63 50 0.0 1.0 0.00 0.00 0.00 65 1017.2
20260504033017 63 93 0.0 1.0 0.00 0.00 0.00 64 1017.2
20260504032520 63 40 0.0 1.0 0.00 0.00 0.00 63 1017.1
20260504032017 63 95 0.0 1.0 0.00 0.00 0.00 63 1017.1
20260504031520 64 78 0.0 1.0 0.00 0.00 0.00 60 1017.2
20260504031017 64 96 0.0 1.0 0.00 0.00 0.00 60 1017.2
20260504030517 64 82 0.0 1.0 0.00 0.00 0.00 59 1017.2
20260504030017 64 67 0.0 1.0 0.00 0.00 0.00 59 1017.2
20260504025517 65 44 0.0 0.0 0.00 0.00 0.00 58 1017.1
20260504025017 65 98 0.0 1.0 0.00 0.00 0.00 57 1017.1
20260504024520 65 59 0.0 1.0 0.00 0.00 0.00 57 1017.2
20260504024017 65 120 0.0 1.0 0.00 0.00 0.00 56 1017.2
20260504023517 65 76 0.0 1.0 0.00 0.00 0.00 57 1017.0
20260504023018 65 124 0.0 1.0 0.00 0.00 0.00 57 1017.0
20260504022518 66 72 0.0 1.0 0.00 0.00 0.00 58 1017.0
20260504022021 66 117 0.0 1.0 0.00 0.00 0.00 57 1017.1
20260504021518 66 119 0.0 1.0 0.00 0.00 0.00 56 1017.1
20260504021021 67 99 0.0 1.0 0.00 0.00 0.00 55 1017.0
20260504020521 67 164 0.0 1.0 0.00 0.00 0.00 55 1017.1
20260504020018 68 143 0.0 1.0 0.00 0.00 0.00 54 1016.9
20260504015518 68 124 0.0 1.0 0.00 0.00 0.00 53 1016.7
20260504015020 68 193 0.0 2.0 0.00 0.00 0.00 53 1016.6
20260504014519 69 177 0.0 2.0 0.00 0.00 0.00 53 1016.5
20260504014016 69 173 0.0 1.0 0.00 0.00 0.00 52 1016.5
20260504013518 69 148 0.0 1.0 0.00 0.00 0.00 51 1016.5
20260504013016 70 179 0.0 1.0 0.00 0.00 0.00 50 1016.5
20260504012519 70 179 0.0 1.0 0.00 0.00 0.00 50 1016.5
20260504012020 70 164 0.0 1.0 0.00 0.00 0.00 49 1016.5
20260504011516 70 200 0.0 1.0 0.00 0.00 0.00 49 1016.5
20260504011016 71 171 0.0 2.0 0.00 0.00 0.00 49 1016.5
20260504010516 71 148 0.0 1.0 0.00 0.00 0.00 49 1016.5
20260504010016 71 164 0.0 1.0 0.00 0.00 0.00 48 1016.6
20260504005519 72 176 0.0 1.0 0.00 0.00 0.00 48 1016.5
20260504005017 72 169 0.0 1.0 0.00 0.00 0.00 47 1016.5
20260504004519 73 192 0.0 2.0 0.00 0.00 0.00 47 1016.5
20260504004019 73 188 0.0 2.0 0.00 0.00 0.00 46 1016.5
20260504003516 73 161 0.0 2.0 0.00 0.00 0.00 45 1016.5
20260504003016 74 204 0.0 2.0 0.00 0.00 0.00 45 1016.6
20260504002516 74 174 0.0 2.0 0.00 0.00 0.00 44 1016.7
20260504002017 74 174 1.0 2.0 0.00 0.00 0.00 45 1016.7
20260504001516 75 200 0.0 3.0 0.00 0.00 0.00 45 1016.8
20260504001020 75 164 0.0 3.0 0.00 0.00 0.00 44 1016.9
20260504000516 75 153 0.0 1.0 0.00 0.00 0.00 44 1017.0
20260504000020 75 140 1.0 3.0 0.00 0.00 0.00 44 1017.0
20260503235517 76 201 1.0 2.0 0.00 0.00 0.00 44 1017.1
20260503235017 77 190 1.0 3.0 0.00 0.00 0.00 44 1017.1
20260503234521 77 197 1.0 2.0 0.00 0.00 0.00 44 1017.1
20260503234020 77 197 1.0 4.0 0.00 0.00 0.00 43 1017.1
20260503233517 77 147 0.0 2.0 0.00 0.00 0.00 43 1017.1
20260503233018 78 159 1.0 3.0 0.00 0.00 0.00 42 1017.2
20260503232522 78 185 0.0 1.0 0.00 0.00 0.00 43 1017.2
20260503232017 78 155 1.0 2.0 0.00 0.00 0.00 42 1017.2
20260503231518 78 140 1.0 3.0 0.00 0.00 0.00 42 1017.2
20260503231018 78 170 0.0 2.0 0.00 0.00 0.00 41 1017.1
20260503230521 79 153 1.0 2.0 0.00 0.00 0.00 40 1017.0
20260503230018 81 163 1.0 3.0 0.00 0.00 0.00 40 1017.0
20260503225515 82 177 0.0 4.0 0.00 0.00 0.00 40 1017.1
20260503225021 83 213 1.0 2.0 0.00 0.00 0.00 39 1017.1
20260503224515 83 153 1.0 2.0 0.00 0.00 0.00 39 1017.1
20260503224015 83 59 1.0 3.0 0.00 0.00 0.00 38 1017.3
20260503223521 83 137 1.0 4.0 0.00 0.00 0.00 38 1017.4
20260503223015 82 122 1.0 2.0 0.00 0.00 0.00 39 1017.6
20260503222520 82 188 1.0 3.0 0.00 0.00 0.00 39 1017.5
20260503222019 82 158 1.0 4.0 0.00 0.00 0.00 38 1017.5
20260503221515 82 156 1.0 3.0 0.00 0.00 0.00 38 1017.8
20260503221015 82 162 1.0 3.0 0.00 0.00 0.00 38 1017.8
20260503220516 82 134 1.0 3.0 0.00 0.00 0.00 38 1017.8
20260503220020 82 129 1.0 3.0 0.00 0.00 0.00 39 1017.8
20260503215515 82 218 1.0 4.0 0.00 0.00 0.00 39 1017.9
20260503215019 82 202 0.0 2.0 0.00 0.00 0.00 38 1017.9
20260503214516 82 159 1.0 3.0 0.00 0.00 0.00 37 1018.0
20260503214016 83 142 1.0 3.0 0.00 0.00 0.00 37 1018.1
20260503213519 83 219 1.0 3.0 0.00 0.00 0.00 39 1018.3
20260503213016 82 200 1.0 2.0 0.00 0.00 0.00 39 1018.3
20260503212519 83 224 1.0 7.0 0.00 0.00 0.00 38 1018.4
20260503212017 83 140 1.0 2.0 0.00 0.00 0.00 38 1018.4
20260503211519 82 155 1.0 4.0 0.00 0.00 0.00 38 1018.6
20260503211016 82 176 1.0 2.0 0.00 0.00 0.00 37 1018.8
20260503210516 82 146 1.0 4.0 0.00 0.00 0.00 38 1018.8